TimeCST,TemperatureF,Dew PointF,Humidity,Sea Level PressureIn,VisibilityMPH,Wind Direction,Wind SpeedMPH,Gust SpeedMPH,PrecipitationIn,Events,Conditions,WindDirDegrees,DateUTC
12:53 AM,3.9,-0.9,80,30.48,10.0,Calm,Calm,-,N/A,,Clear,0,2013-11-27 06:53:00
1:53 AM,5.0,-0.9,76,30.45,10.0,Calm,Calm,-,N/A,,Clear,0,2013-11-27 07:53:00
2:53 AM,3.0,-0.9,84,30.43,10.0,Calm,Calm,-,N/A,,Clear,0,2013-11-27 08:53:00
3:53 AM,7.0,1.9,80,30.41,10.0,South,3.5,-,N/A,,Clear,170,2013-11-27 09:53:00
4:53 AM,7.0,3.0,84,30.38,9.0,SE,4.6,-,N/A,,Clear,140,2013-11-27 10:53:00
5:53 AM,9.0,5.0,84,30.37,9.0,South,6.9,-,N/A,,Clear,180,2013-11-27 11:53:00
6:53 AM,10.0,6.1,84,30.33,8.0,SSE,10.4,-,N/A,,Mostly Cloudy,160,2013-11-27 12:53:00
7:53 AM,10.9,6.1,81,30.31,9.0,SSE,10.4,-,N/A,,Overcast,150,2013-11-27 13:53:00
8:53 AM,12.0,7.0,80,30.29,9.0,SSE,12.7,-,N/A,,Overcast,150,2013-11-27 14:53:00
9:53 AM,14.0,9.0,80,30.26,10.0,SSE,16.1,-,N/A,,Overcast,160,2013-11-27 15:53:00
10:53 AM,17.1,9.0,71,30.19,10.0,SSE,20.7,29.9,N/A,,Overcast,160,2013-11-27 16:53:00
11:53 AM,19.0,9.0,65,30.13,10.0,SSE,20.7,27.6,N/A,,Scattered Clouds,150,2013-11-27 17:53:00
12:53 PM,21.0,9.0,60,30.09,10.0,SE,16.1,-,N/A,,Clear,140,2013-11-27 18:53:00
1:53 PM,23.0,8.1,53,30.05,10.0,SE,20.7,26.5,N/A,,Clear,140,2013-11-27 19:53:00
2:53 PM,25.0,7.0,46,30.03,10.0,South,24.2,29.9,N/A,,Clear,170,2013-11-27 20:53:00
3:53 PM,25.0,8.1,49,30.04,10.0,SSE,12.7,-,N/A,,Mostly Cloudy,160,2013-11-27 21:53:00
4:53 PM,25.0,8.1,49,30.06,10.0,South,12.7,-,N/A,,Overcast,170,2013-11-27 22:53:00
5:53 PM,24.1,9.0,53,30.06,10.0,SE,10.4,-,N/A,,Overcast,140,2013-11-27 23:53:00
6:53 PM,24.1,9.0,53,30.07,10.0,SSE,9.2,-,N/A,,Overcast,150,2013-11-28 00:53:00
7:53 PM,24.1,9.0,53,30.08,10.0,SE,6.9,-,N/A,,Overcast,140,2013-11-28 01:53:00
8:53 PM,24.1,9.0,53,30.10,10.0,SE,3.5,-,N/A,,Overcast,140,2013-11-28 02:53:00
9:53 PM,24.1,10.0,55,30.10,10.0,SSW,4.6,-,N/A,,Overcast,200,2013-11-28 03:53:00
10:53 PM,23.0,10.9,60,30.13,10.0,WNW,6.9,-,N/A,,Overcast,290,2013-11-28 04:53:00
11:53 PM,21.9,12.0,66,30.16,10.0,WNW,6.9,-,N/A,,Overcast,290,2013-11-28 05:53:00